Orbital Elements at Epoch 2459200.5 (2020-Dec-17.0) TDB
Reference: JPL 21 (heliocentric ecliptic J2000)
Element | Value | Uncertainty (1-sigma) | Units |
e | .05705850560099008 | 3.6198e-08 | |
a | 3.063388842975524 | 2.3261e-08 | au |
q | 2.888596453520594 | 1.0902e-07 | au |
i | 10.11729489550587 | 4.0166e-06 | deg |
node | 156.0382534155607 | 2.8768e-05 | deg |
peri | 307.6674753898768 | 5.4087e-05 | deg |
M | 160.5296064656698 | 4.6903e-05 | deg |
tp | 2458327.218506783635 (2018-Jul-27.71850678) | 0.00025293 | TDB |
period | 1958.400973375113 5.36 | 2.2306e-05 6.107e-08 | d yr |
n | .1838234380467934 | 2.0938e-09 | deg/d |
Q | 3.238181232430453 | 2.4589e-08 | au |
|
| | Orbit Determination Parameters
Additional Information
|